Terug naar catalogus

DMSP 5D-2 F15

USA 147

ActiefWeerSSO
NORAD 25991·PAYLOAD·🇺🇸 United States

Gelanceerd Dec 12, 1999 vanaf Vandenberg Space Force Base

Loading…

Volgende Passages (komende 24 uur)

TLE

VersSource: Space-Track

Epoch: Sep 14, 2026, 22:23 UTC

1 25991U 99067A   26257.93273762  .00000060  00000-0  51889-4 0  9999
2 25991  98.9890 297.5787 0011036 106.3430 309.2972 14.17586941383365

Volg DMSP 5D-2 F15 in realtime met AllMySat

Download on the App Store